Погода в Джалалабаде

Погода в Джалалабаде : погода сейчас, прогноз погоды и архив. Всё, что Вы хотите узнать о погоде в Джалалабаде!

Поиск расширенной информации на нашем сайте:

Другие новости

Новости СМИ2

Главная страница сайта

Новости сайта

03.07.2017

Напоминаем, что на нашем специализированном сайте Метеоцентр.Азия вы можете получить высокодетализированные автоматические прогнозы погоды по пунктам России, СНГ и мира в авиационном формате (включающие направление и скорость ветра, видимость, явления погоды, количество и форму облачности, нижнюю и верхнюю границу облачности).

Рекомендуем: Смотрите описание шкода на сайте.

Погода в Джалалабаде - сегодня

Время (UTC), дата Ветер
(°,м/с) 
Видим.   Явления Облачность Т
(°С)
Тd
(°С)
f(%) Тe
(°С)
Pmin
(гПа)
dP
(гПа)
Po
(мм)
O2
(г/м3)
Тmin Tmax R s Состояние
почвы
00 16.02.18 020 (С) 2-0  н/о    10/0 средняя 
[As op]
-1.5 -5.8 72 -2  1032.8  0.5  707  287        мокрый или
старый снег
10-40% 
03 16.02.18 180 (Ю) 2000 м  слаб. снег  10/10 600 м кучево-дожд. 
[Cb cap]
+0.5 +0.2 98 +1  1036.8  0.8  709  285  -0         
06 16.02.18 020 (С) 2-3  4000 м  {снег}  10/0 средняя 
[As op]
+2.8 +1 88 +2  1035.9  -0.2  708  282  +0.2         
09 16.02.18 330 (СЗ) 1-2  10 км    8/0 средняя 
[As op]
+5.6 -0.5 65 +6  1033.5  -1.3  706  279           
12 16.02.18 160 (Ю) 1-2  4000 м    8/0 средняя 
[As op]
+3.4 +1.1 85 +4  1034.7  0.4  707  281    -0.3       
15 16.02.18 180 (Ю) 1-1  н/о    10/0 средняя 
[As op]
+2.5 +0.4 86 +3  1035.5  0.5  708  283    +6       
18 16.02.18 160 (Ю) н/о    10/0 средняя 
[As op]
+1.4 -0.3 88 +2  1025  -0.8  699  279    +6  0.0     
21 16.02.18 090 (В) 1-1  н/о    3/0 верхняя 
[Ci sp]
-0.9 -2.1 92 1035.1  -0.6  707  286           
00 17.02.18 280 (З) 1-2  н/о    9/0 средняя 
[As op]
-1.4 -2.8 90 -1  1034.8  -0.5  706  286           
03 17.02.18 тихо ()   20000 м    9/0 средняя 
[As op]
-0.8 -3 85 -1  1034.8  0.3  707  286  -2.3       
06 17.02.18 100 (В) 1-2  4000 м    10/0 средняя 
[As op]
+2 -0.8 82 +3  1033.4  -0.4  706  282  -1.4         
09 17.02.18 180 (Ю) 1-2  2000 м    10/0 средняя 
[As op]
+2.6 +0.5 86 +3  1031.8  -1.3  705  281           
12 17.02.18 160 (Ю) 1-1  4000 м    9/0 средняя 
[As op]
+2.8 +0.7 86 +4  1031.1  -0.6  704  281           
15 17.02.18 040 (СВ) 1-1  н/о    4/0 верхняя 
[Ci fib]
-0.6 -1.8 92 1032.4  706  285    +3.1       
18 17.02.18 010 (С) н/о    10/0 верхняя 
[Ci fib]
-0.3 -1.8 90 1031.9  -0.3  703  283    +3.1       
21 17.02.18 010 (С) н/о    ясно 
-2.7 -6.1 77 -4  1031.5  -1.1  702  286           
00 18.02.18 020 (С) 1-2  н/о    ясно 
-4.2 -7.6 77 -4  1030.9  -1.1  703  288           
03 18.02.18 020 (С) 20000 м    10/0 верхняя 
[Ci sp]
-3.5 -6 83 -3  1030.4  -0.3  704  288  -4.7       
06 18.02.18 260 (З) 1-2  20000 м    10/0 средняя 
[As op]
+1 -4.3 68 +2  1028.7  0.1  703  282  -4.2         
09 18.02.18 120 (ЮВ) 1-3  20000 м    9/0 средняя 
[As op]
+2.4 -3.2 66 +3  1027  -1             
12 18.02.18 090 (В) 1-2  20000 м    10/0 средняя 
[As op]
+2.6 -3 67 +3  1026.1  -0.6  701  280           
15 18.02.18 010 (С) 1-1  н/о    6/0 верхняя 
[Ci sp]
-0.2 -2.6 84 1027.3  0.2  702  283    +3       
18 18.02.18 020 (С) н/о    ясно 
-2.3 -4.5 85 -2  1028.9  0.5  701  285    +3       
21 18.02.18 010 (С) 1-2  н/о    ясно 
-3.5 -6.7 78 -3  1029.1  -0.2  703  287           
00 19.02.18 020 (С) 1-3  н/о    ясно 
-4.2 -7.6 77 -4  1028.3  -0.1  701  288           
Время (UTC), дата Ветер
(°,м/с) 
Видим.   Явления Облачность Т
(°С)
Тd
(°С)
f(%) Тe
(°С)
Pmin
(гПа)
dP
(гПа)
Po
(мм)
O2
(г/м3)
Тmin Tmax R s Состояние
почвы

Для получения пояснительной информации подведите курсор к названию столбца.

ПОГОДА в Джалалабаде - архив

Всё, что Вы хотите узнать о погоде в Джалалабаде - удобно и подробно!

Выберите нужную дату (начиная с 1 января 2015* года) и нажмите кнопку "Найти".
Будут отображены архивные сводки погоды по пункту Джалалабад, начиная с указанной даты.


Отображать данные в формате CSV (для использования в таблицах Excel)


Внимание! Наш архив погоды предназначен исключительно для личного некоммерческого использования в познавательных целях. Если Вам необходимы официальные справки о состоянии погоды (для производственных, юридических, коммерческих и т.п. целей), обращайтесь в органы Росгидромета.

*Примечание: данная дата относится к архиву по метеостанциям СССР (Россия, СНГ, Балтия).
Архив по метеостанциям Зарубежной Европы и Азии (кроме Китая) хранится 10 дней, по другим регионам земного шара (Китай, Африка, Америка, Австралия, Океания) - 1 день.

Джалалабад - район местоположения метеостанции


Название, широта, долгота, высота метеостанции:
Джалалабад 40.9°ш. 72.9°д. 765 м над ур. моря [Кыргызстан]

Дополнительная информация

В oтличие oт бoльшинства пoгoдных сайтoв мы публикуем пoдрoбную метеoинфoрмацию в детальнoм прoфессиoнальнoм фoрмате.

Характеристики температуры и влажнoсти вoздуха измеряются на высoте 2 м в тени вдали oт зданий и деревьев.
Скoрoсть ветра измеряется на высoте 10 м (на урoвне рoста челoвека скoрoсть ветра ниже в 1.5-2 раза). Если метеoстанция нахoдится в гoрoде или в лесу, тo скoрoсть ветра занижена на 2-4 м/с пo сравнению с oткрытым местoм. Скoрoсть ветра над акватoриями крупных рек и oзёр, а также на вершинах хoлмoв на 2-5 м/с выше, чем в oбычных услoвиях.
Атмoсфернoе давление в разных тoчках местнoсти мoжет значительнo oтличаться oт давления на метеoстанции, в зависимoсти oт услoвий рельефа (при пoдъёме на 10 м давление пoнижается примернo на 1 мм рт.ст.).